Overview Statistics Trail Chart Weather Telemetry Raw packets
 

This is the latest recevied weather packets stored in our database for station/object SQ4LOL-9. If no packets are shown the sender has not sent any weather packets the latest 10 day(s).

<< 1 2 3 4 5 >>
Time Temp. Humidity Pressure Rain* Wind** Luminosity Snow
1777933478 18.33° C 38% 990.4 hPa - - - -
1777933472 18.33° C 38% 990.6 hPa - - - -
1777933465 18.33° C 39% 990.8 hPa - - - -
1777933452 18.33° C 39% 990.9 hPa - - - -
1777933446 17.78° C 39% 991 hPa - - - -
1777901299 16.67° C 40% 991.9 hPa - - - -
1777901292 16.67° C 40% 991.4 hPa - - - -
1777901286 16.67° C 40% 991.7 hPa - - - -
1777901280 16.11° C 40% 991.7 hPa - - - -
1777901273 16.11° C 40% 990.5 hPa - - - -
1777901260 16.11° C 40% 989.7 hPa - - - -
1777901254 16.11° C 40% 990 hPa - - - -
1777901247 16.11° C 40% 990.7 hPa - - - -
1777901235 16.11° C 40% 991.1 hPa - - - -
1777901228 16.11° C 41% 990.2 hPa - - - -
1777901222 16.11° C 41% 990.5 hPa - - - -
1777901209 15.56° C 41% 990.3 hPa - - - -
1777901202 15.56° C 40% 990.7 hPa - - - -
1777901196 15.56° C 41% 990.2 hPa - - - -
1777901189 15.56° C 41% 990.1 hPa - - - -
1777901183 15.56° C 42% 989.6 hPa - - - -
1777901177 15.56° C 42% 989.9 hPa - - - -
1777901170 15° C 41% 990.5 hPa - - - -
1777901159 15° C 41% 990.9 hPa - - - -
1777901152 15° C 40% 991.7 hPa - - - -

* Rain since midnight (hover to see other rain measurements)
** Current wind speed in m/s (hover to see current wind gust speed)